Regional Weather Roundup
Issued by NWS Sioux Falls, SD

Home | Current Version | Previous Version | Text Only | Print | Product List | Glossary Off
Versions: 1 2 3 4 5 6 7 8 9 10 11 12 13 14 15 16 17 18 19 20 21 22 23 24 25 26 27 28 29 30 31 32 33 34 35 36 37 38 39 40 41 42 43 44 45 46 47 48 49 50

463
ASUS43 KFSD 301902
RWRFSD

WEATHER ROUNDUP FOR SE SOUTH DAKOTA/SW MINNESOTA/NW IOWA
NATIONAL WEATHER SERVICE SIOUX FALLS SD
200 PM CDT SUN APR 30 2017

NOTE: "FAIR" INDICATES FEW OR NO CLOUDS BELOW 12,000 FEET WITH NO
SIGNIFICANT WEATHER AND OR OBSTRUCTIONS TO VISIBILITY.


SDZ038>040-050-052>070-302000-
SOUTHEAST SOUTH DAKOTA

CITY           SKY/WX    TMP DP  RH WIND       PRES   REMARKS
BROOKINGS      LGT RAIN  43  26  51 NE18      29.84F
CHAMBERLAIN    CLOUDY    51  24  34 N13G22    29.86F
HURON          CLOUDY    51  24  34 NE21      29.86F
MADISON        LGT RAIN  39  32  75 NE25G32   29.83F
MITCHELL       CLOUDY    48  27  44 NE17G28   29.85F
SIOUX FALLS    LGT RAIN  41  41 100 NE23G36   29.80F
WINNER         FAIR      51  19  28 N26G32    29.85F
YANKTON        CLOUDY    39  36  87 N25       29.75F
$$

MNZ071-072-080-081-089-090-097-098-302000-
SOUTHWEST MINNESOTA

CITY           SKY/WX    TMP DP  RH WIND       PRES   REMARKS
FAIRMONT       CLOUDY    40  38  93 NE20      29.79F
JACKSON        CLOUDY    36  36 100 NE28G36   29.79F FOG
LUVERNE        CLOUDY    37  34  87 NE24G33   29.79F
MARSHALL       LGT RAIN  42  36  79 NE23G29   29.85F
MONTEVIDEO     DRIZZLE   43  37  81 E23       29.90F
PIPESTONE      LGT RAIN  39  36  87 NE18G28   29.80F
REDWOOD FALLS  CLOUDY    43  33  68 NE15G29   29.87F
TRACY          LGT RAIN  41  38  91 NE21G29   29.85F
WINDOM         CLOUDY    39  37  93 NE21G26   29.82S
WORTHINGTON    CLOUDY    37  35  92 NE30G37   29.78F
$$

IAZ001>003-012>014-020>022-031-032-NEZ013-014-SDZ071-302000-
NORTHWEST IOWA

CITY           SKY/WX    TMP DP  RH WIND       PRES   REMARKS
CHEROKEE       CLOUDY    40  38  92 NE17G26   29.70F
DENISON        CLOUDY    41  39  93 NE22G38   29.61F
ESTHERVILLE    CLOUDY    39  38  96 NE26G36   29.75F
ORANGE CITY    LGT RAIN  37  37 100 NE14G29   29.71F
SHELDON        CLOUDY    39  36  87 NE33G40   29.72F
SIOUX CITY     LGT RAIN  41  38  89 NE23G35   29.67F
SPENCER        CLOUDY    39  37  92 NE29G35   29.74F
STORM LAKE     CLOUDY    39  37  93 NE31G40   29.68F
$$

ABBREVIATIONS USED IN REMARKS
   TC - TEMPERATURE IN CELSIUS
  WCI - WIND CHILL INDEX
   HX - HEAT INDEX
  VSB - VISIBILITY





USA.gov is the U.S. government's official web portal to all federal, state and local government web resources and services.